Location: Peebles
(55.6412°N, 3.1714°W)
Time: 15:07:35
(UTC+01:00)

Cosmos 2074 Rocket - Pass Details

Date: 26 September 2021
Orbit: 968 x 985 km, 82.9° (Epoch: 17 October)

Event Time Altitude Azimuth Distance (km) Brightness Sun altitude
Rises 19:26:42 0° 173° (S) 3,670 6.9 -4.5°
Reaches altitude 10° 19:29:14 10° 169° (S) 2,728 6.2 -4.9°
Maximum altitude 19:35:20 57° 93° (E) 1,151 4.1 -5.7°
Drops below altitude 10° 19:41:29 10° 17° (NNE) 2,755 6.3 -6.6°
Sets 19:44:03 0° 13° (NNE) 3,708 7.0 -6.9°
